DELTA 1 DEB, 10207

Orbit data source: Space-Track

DELTA 1 DEB, 10207 is space debris in LEO originally from a launch on Thu, 14 Jul 1977 UTC launched from the Air Force Eastern Test Range (AFETR). Debris objects in space refer to the collection of defunct objects orbiting the Earth. Examples of debris include non-operational satellites, rocket bodies, and fragments generated from explosions, collisions, or faulty payload assembly.

Loading next visibility...
Identifier
10207, 1977-065AL
Orbit
LEO
Country
Flag of USUS
Related business
Manufacturer
Unknown
Mission
Spacecraft
Bus & Motor
Unknown
Mass
Unknown
Launch date (UTC)
1977-07-14 (48 years ago)
Launch vehicle
Unknown
Launch site
Air Force Eastern Test Range (AFETR)
Object type
Payload
Rocket body
Debris
Shape & HBR
Unknown shape, 0.1 m
Radar Cross Section
Medium (>0.1 m² and <1 m²)

Expand to show TLE details & history
Last TLE update: 14 hours ago

TLE from 14 hours ago
0 DELTA 1 DEB
1 10207U 77065AL  25348.99076027  .00001847  00000-0  32980-2 0  9991
2 10207  29.0903 341.3422 0678411 269.3056  82.9761 12.73441988230692
Epoch: 2025-12-14T23:46Z
TLE epoch observation values (Epoch: 2025-12-14T23:46:41.687Z)
Latitude
-0.00001°
Longitude
-99.22725°
Altitude
1,337.642 km
Speed
7.204 km/s
True Right ascension
22h 45m 22s
True Declination
0° 00' 00"
Sunlit
Object was in daylight at epoch
Visualization orbit readout
Latitude
Unknown
Longitude
Unknown
Altitude
Unknown
Speed
Unknown
Apparent Right ascension
Unknown
Apparent Declination
Unknown
Sunlit
N/A
Visualization observer readout
Local Sidereal Time
11:59:57
Azimuth
Unknown
Elevation
Unknown
Doppler factor
Unknown
Orbital elements
Apogee altitude
1,897.406 km
Perigee altitude
845.898 km
Semi-major axis
7,749.789 km
Eccentricity
0.06784
Inclination
29.0903°
RAAN
341.3422°
Arg. of periapsis
269.3056°
True anomaly
90.74865°
Mean anomaly
82.9761°
Eccentric anomaly
86.85726°
Mean motion
3.18133 °/min
Orbital period
113.16 mins
BSTAR
0.003298
Loading maneuver chart data...
Computing Atmospheric mass density...
Loading historical data...
Loading historical data...
Loading historical data...
Loading historical data...
Loading historical data...
Loading historical data...
Loading historical data...

Documentation

Showing up to 5 results
|